Pensacola, FL

8:42 AM CST on November 19, 2017 (GMT -0600)
Pensacola Regional

Weather History for KPNS - March, 2013

Change the Weather History Date:

Sunday, March 24, 2013

  Actual Average Record
Temperature  
Mean Temperature 65 °F 62 °F  
Max Temperature 82 °F 71 °F 86 °F (1991)
Min Temperature 48 °F 53 °F 29 °F (1968)
Degree Days  
Heating Degree Days 0 4  
Month to date heating degree days 190 150  
Since 1 July heating degree days 1071 1458  
Cooling Degree Days 0 1  
Month to date cooling degree days 10 23  
Year to date cooling degree days 50 37  
Growing Degree Days 18 (Base 50)    
Moisture  
Dew Point 57 °F    
Average Humidity 60    
Maximum Humidity 93    
Minimum Humidity 26    
Precipitation  
Precipitation 0.01 in 0.18 in 2.05 in (1900)
Month to date precipitation 1.56 4.54  
Year to date precipitation 15.83 14.23  
Snow  
Snow 0.00 in 0.00 in - ()
Month to date snowfall 0.0 0.0  
Since 1 July snowfall 0.0 0.0  
Snow Depth 0.00 in    
Sea Level Pressure  
Sea Level Pressure 29.66 in    
Wind  
Wind Speed 15 mph (West)    
Max Wind Speed 26 mph    
Max Gust Speed 33 mph    
Visibility 8 miles    
Events      
T = Trace of Precipitation, MM = Missing Value Source: NWS Daily Summary

Daily Weather History Graph

Daily Weather History Graph

Search for Another Location

Airport or City:

Trip Planner

Search our weather history database for the weather conditions in past years. The results will help you decide how hot, cold, wet, or windy it might be!

Date:

Astronomy

Mar. 24, 2013 Rise Set
Actual Time 6:47 AM CDT 7:02 PM CDT
Civil Twilight 6:23 AM CDT 7:26 PM CDT
Nautical Twilight 5:55 AM CDT 7:55 PM CDT
Astronomical Twilight 5:26 AM CDT 8:23 PM CDT
Moon 4:39 PM CDT (3/24) 4:47 AM CDT (3/24)
Length of Visible Light 13h 03m
Length of Day
12h 15m
Waxing Gibbous, 92% of the Moon is Illuminated
Mar 24
Waxing Gibbous
Mar 27
Full
Apr 2
Last Quarter
Apr 10
New
Apr 18
First Quarter

Hourly Weather History & Observations

Time (CDT) Temp. Heat Index Dew Point Humidity Pressure Visibility Wind Dir Wind Speed Gust Speed Precip Events Conditions
12:53 AM 71.1 °F - 69.1 °F 93% 29.61 in 5.0 mi SW 15.0 mph - 0.03 in   Overcast
1:16 AM 71.6 °F - 69.8 °F 94% 29.60 in 7.0 mi SW 17.3 mph 25.3 mph N/A   Overcast
1:53 AM 72.0 °F - 70.0 °F 93% 29.60 in 6.0 mi SW 15.0 mph 26.5 mph 0.01 in   Overcast
2:53 AM 72.0 °F - 70.0 °F 93% 29.58 in 6.0 mi SW 16.1 mph 23.0 mph 0.00 in   Overcast
3:53 AM 72.0 °F - 69.1 °F 91% 29.58 in 6.0 mi WSW 17.3 mph 28.8 mph N/A   Overcast
4:53 AM 71.1 °F - 68.0 °F 90% 29.57 in 6.0 mi WSW 12.7 mph 20.7 mph N/A   Overcast
5:53 AM 71.1 °F - 68.0 °F 90% 29.58 in 6.0 mi WSW 11.5 mph 19.6 mph N/A   Overcast
6:53 AM 70.0 °F - 66.9 °F 90% 29.60 in 6.0 mi West 12.7 mph 20.7 mph N/A   Overcast
7:06 AM 69.8 °F - 66.2 °F 88% 29.60 in 5.0 mi West 12.7 mph 19.6 mph N/A   Overcast
7:15 AM 69.8 °F - 66.2 °F 88% 29.60 in 5.0 mi WNW 12.7 mph - N/A   Overcast
7:22 AM 69.8 °F - 66.2 °F 88% 29.60 in 6.0 mi WNW 11.5 mph - N/A   Overcast
7:32 AM 69.8 °F - 64.4 °F 83% 29.60 in 9.0 mi WNW 15.0 mph - N/A   Scattered Clouds
7:53 AM 70.0 °F - 63.0 °F 78% 29.62 in 10.0 mi NW 10.4 mph - N/A   Clear
8:53 AM 72.0 °F - 60.1 °F 66% 29.62 in 10.0 mi North 3.5 mph - N/A   Clear
9:53 AM 73.9 °F - 60.1 °F 62% 29.65 in 10.0 mi West 9.2 mph - N/A   Clear
10:53 AM 77.0 °F - 60.1 °F 56% 29.68 in 10.0 mi WSW 8.1 mph 25.3 mph N/A   Clear
11:53 AM 79.0 °F - 55.0 °F 44% 29.67 in 10.0 mi WNW 11.5 mph - N/A   Clear
12:53 PM 81.0 °F 80.8 °F 55.9 °F 42% 29.65 in 10.0 mi West 6.9 mph - N/A   Clear
1:53 PM 80.1 °F 81.2 °F 62.1 °F 54% 29.64 in 10.0 mi SW 15.0 mph 23.0 mph N/A   Clear
2:53 PM 82.0 °F 81.7 °F 57.0 °F 42% 29.64 in 10.0 mi West 19.6 mph 25.3 mph N/A   Clear
3:53 PM 81.0 °F 81.7 °F 61.0 °F 50% 29.62 in 10.0 mi WSW 15.0 mph 26.5 mph N/A   Clear
4:53 PM 81.0 °F - 42.1 °F 25% 29.62 in 10.0 mi West 20.7 mph 27.6 mph N/A   Clear
5:53 PM 75.9 °F - 45.0 °F 33% 29.66 in 10.0 mi WNW 24.2 mph 32.2 mph N/A   Clear
6:53 PM 68.0 °F - 50.0 °F 52% 29.72 in 10.0 mi NW 26.5 mph 33.4 mph N/A   Clear
7:53 PM 63.0 °F - 41.0 °F 45% 29.77 in 10.0 mi NW 11.5 mph 23.0 mph N/A   Clear
8:53 PM 61.0 °F - 39.0 °F 44% 29.81 in 10.0 mi NW 16.1 mph 23.0 mph N/A   Clear
9:53 PM 57.9 °F - 33.1 °F 39% 29.86 in 10.0 mi NNW 18.4 mph 29.9 mph N/A   Clear
10:53 PM 54.0 °F - 32.0 °F 43% 29.89 in 10.0 mi NW 16.1 mph 25.3 mph N/A   Clear
11:53 PM 50.0 °F - 33.1 °F 52% 29.92 in 10.0 mi NNW 17.3 mph 27.6 mph N/A   Clear